(514474) = 2016 UL148

Discovered at Kitt Peak on 2010-04-09 by Spacewatch.

Orbit

Orbit type: Main Belt

Note: WebGL enabled browser required.

epoch2022-01-21.0
epoch JD2459600.5
perihelion date2021-11-30.40051
perihelion JD2459548.90051
argument of perihelion (°)66.05813
ascending node (°)69.89350
inclination (°)6.48823
eccentricity0.0811781
perihelion distance (AU)2.3764975
Tisserand w.r.t. Jupiter3.4
ΔV w.r.t. Earth (km/sec)9.8
semimajor axis (AU)2.5864616
mean anomaly (°)12.22616
mean daily motion (°/day)0.23694350
aphelion distance (AU)2.796
period (years)4.16
P-vector [x]-0.71325603
P-vector [y]0.59496629
P-vector [z]0.37051444
Q-vector [x]-0.69282465
Q-vector [y]-0.67850335
Q-vector [z]-0.24418683
absolute magnitude17.0
phase slope0.15
uncertainty0
referenceMPO 701197
observations used210
oppositions10
arc length (days)8245
first opposition used1999
last opposition used2022
residual rms (arc-secs)0.80
perturbers coarse indicatorM-v
perturbers precise indicator003Ek
first observation date used1999-10-01.0
last observation date used2022-04-28.0
computer namePan
JD of orbit computation2458173.142436
perihelion JD uncertainty (days)2.6684E-04
argument of perihelion uncertainty (°)8.2653E-05
ascending node uncertainty (°)4.6960E-05
inclination uncertainty (°)6.9518E-06
eccentricity uncertainty 3.6352E-08
perihelion distance uncertainty (AU)9.1445E-08

Observations

216 total observations over interval: 1999 10 01.30021 – 2022 04 28.222548
These data are available for download (format description).

Date (UT) J2000 RA J2000 Dec Magn Location Ref
1999 10 01.30021 00 56 19.33 -03 38 19.3 19.9 V 691 – Steward Observatory, Kitt Peak-Spacewatch MPS 862033
1999 10 01.30777 00 56 18.90 -03 38 21.3 20.1 V 691 – Steward Observatory, Kitt Peak-Spacewatch MPS 862033
1999 10 01.31557 00 56 18.47 -03 38 23.3 20.0 V 691 – Steward Observatory, Kitt Peak-Spacewatch MPS 862033
2004 12 15.46067 07 55 58.39 +26 32 38.6 20.6 V 691 – Steward Observatory, Kitt Peak-Spacewatch MPS 862033
2004 12 15.48659 07 55 57.50 +26 32 47.1 20.5 V 691 – Steward Observatory, Kitt Peak-Spacewatch MPS 862033
2004 12 15.51475 07 55 56.51 +26 32 56.3 20.6 V 691 – Steward Observatory, Kitt Peak-Spacewatch MPS 862033
2010 04 09.35123 15 11 00.04 -12 05 58.4 20.6 V 691 – Steward Observatory, Kitt Peak-Spacewatch MPS 862033
2010 04 09.36891 15 10 59.31 -12 05 56.5 20.4 V 691 – Steward Observatory, Kitt Peak-Spacewatch MPS 862033
2010 04 09.38659 15 10 58.64 -12 05 55.2 20.6 V 691 – Steward Observatory, Kitt Peak-Spacewatch MPS 862033
2010 05 21.27193 14 34 29.56 -10 56 52.5 19.9 V G96 – Mt. Lemmon Survey MPS 862033
2010 05 21.27912 14 34 29.20 -10 56 52.4 20.1 V G96 – Mt. Lemmon Survey MPS 862033
2010 05 21.28640 14 34 28.81 -10 56 52.7 20.5 V G96 – Mt. Lemmon Survey MPS 862033
2010 05 21.29367 14 34 28.48 -10 56 51.9 20.3 V G96 – Mt. Lemmon Survey MPS 862033
2012 11 24.27458 04 37 16.43 +21 36 16.5 20.1 V 691 – Steward Observatory, Kitt Peak-Spacewatch MPS 862033
2012 11 24.29229 04 37 15.27 +21 36 17.4 20.3 V 691 – Steward Observatory, Kitt Peak-Spacewatch MPS 862033
2012 11 24.30998 04 37 14.13 +21 36 18.3 20.2 V 691 – Steward Observatory, Kitt Peak-Spacewatch MPS 862033
2012 12 08.25380 04 22 25.32 +21 44 37.1 19.7 V G96 – Mt. Lemmon Survey MPS 862033
2012 12 08.25920 04 22 24.96 +21 44 36.8 20.0 V G96 – Mt. Lemmon Survey MPS 862033
2012 12 08.26443 04 22 24.63 +21 44 37.2 19.9 V G96 – Mt. Lemmon Survey MPS 862033
2012 12 08.26968 04 22 24.27 +21 44 37.3 19.8 V G96 – Mt. Lemmon Survey MPS 862033
2012 12 13.22005 04 17 21.58 +21 46 47.1 20.5 V 703 – Catalina Sky Survey MPS 881745
2012 12 13.22665 04 17 21.26 +21 46 48.0 19.8 V 703 – Catalina Sky Survey MPS 881745
2012 12 13.23326 04 17 20.68 +21 46 49.5 19.6 V 703 – Catalina Sky Survey MPS 881745
2012 12 13.23987 04 17 20.36 +21 46 48.7 19.8 V 703 – Catalina Sky Survey MPS 881745
2012 12 21.24039 04 10 03.28 +21 50 32.4 20.1 V G96 – Mt. Lemmon Survey MPS 862033
2012 12 21.24522 04 10 03.07 +21 50 32.5 20.1 V G96 – Mt. Lemmon Survey MPS 862033
2012 12 21.25005 04 10 02.82 +21 50 32.6 20.3 V G96 – Mt. Lemmon Survey MPS 862033
2012 12 21.25491 04 10 02.53 +21 50 32.6 20.0 V G96 – Mt. Lemmon Survey MPS 862033
2014 04 08.34032 13 46 00.63 -02 25 48.3 19.7 V 703 – Catalina Sky Survey MPS 881745
2014 04 08.34784 13 46 00.21 -02 25 47.5 21.0 V 703 – Catalina Sky Survey MPS 881745
2014 04 08.35533 13 45 59.87 -02 25 44.6 19.3 V 703 – Catalina Sky Survey MPS 881745
2014 04 08.36283 13 45 59.41 -02 25 45.1 20.3 V 703 – Catalina Sky Survey MPS 881745
2014 04 24.35534 13 31 25.434 -01 37 29.12 20.3 w F51 – Pan-STARRS 1, Haleakala MPS 862033
2014 04 24.36659 13 31 24.819 -01 37 27.61 20.3 w F51 – Pan-STARRS 1, Haleakala MPS 862033
2014 04 24.38912 13 31 23.585 -01 37 24.69 20.2 w F51 – Pan-STARRS 1, Haleakala MPS 862033
2014 05 04.35171 13 23 16.178 -01 22 30.65 20.5 w F51 – Pan-STARRS 1, Haleakala MPS 862033
2014 05 04.36304 13 23 15.644 -01 22 30.12 20.5 w F51 – Pan-STARRS 1, Haleakala MPS 862033
2014 05 04.38577 13 23 14.593 -01 22 29.06 20.3 w F51 – Pan-STARRS 1, Haleakala MPS 862033
2014 05 18.28308 13 15 06.806 -01 27 38.03 20.8 w F51 – Pan-STARRS 1, Haleakala MPS 862033
2014 05 18.29433 13 15 06.504 -01 27 39.08 20.7 w F51 – Pan-STARRS 1, Haleakala MPS 862033
2014 05 18.30559 13 15 06.201 -01 27 40.08 20.8 w F51 – Pan-STARRS 1, Haleakala MPS 862034
2016 10 10.47284 03 40 49.17 +14 58 26.4 20.8 V G96 – Mt. Lemmon Survey MPS 881745
2016 10 10.47792 03 40 49.00 +14 58 26.3 21.1 V G96 – Mt. Lemmon Survey MPS 881745
2016 10 10.48220 03 40 48.91 +14 58 26.4 20.6 V G96 – Mt. Lemmon Survey MPS 881745
2016 10 10.48648 03 40 48.77 +14 58 26.1 21.1 V G96 – Mt. Lemmon Survey MPS 881745
2016 10 24.41723 03 32 21.00 +14 45 34.6 20.2 V G96 – Mt. Lemmon Survey MPS 862034
2016 10 24.42170 03 32 20.75 +14 45 34.1 20.3 V G96 – Mt. Lemmon Survey MPS 862034
2016 10 24.42883 03 32 20.43 +14 45 33.6 20.3 V G96 – Mt. Lemmon Survey MPS 862034
2016 10 24.43314 03 32 20.23 +14 45 33.1 20.3 V G96 – Mt. Lemmon Survey MPS 862034
2016 11 05.24922 03 21 50.67 +14 29 10.7 20.2 V G96 – Mt. Lemmon Survey MPS 862034
2016 11 05.25348 03 21 50.43 +14 29 10.3 20.2 V G96 – Mt. Lemmon Survey MPS 862034
2016 11 05.25776 03 21 50.16 +14 29 09.8 20.3 V G96 – Mt. Lemmon Survey MPS 862034
2016 11 05.26378 03 21 49.82 +14 29 09.1 20.1 V G96 – Mt. Lemmon Survey MPS 862034
2016 11 18.35271 03 08 41.88 +14 10 47.3 19.4 V G96 – Mt. Lemmon Survey MPS 862034
2016 11 18.35849 03 08 41.52 +14 10 46.8 19.9 V G96 – Mt. Lemmon Survey MPS 862034
2016 11 18.36283 03 08 41.28 +14 10 46.3 19.9 V G96 – Mt. Lemmon Survey MPS 862034
2016 11 18.36723 03 08 40.98 +14 10 46.3 19.9 V G96 – Mt. Lemmon Survey MPS 862034
2016 12 06.24111 02 52 55.35 +13 58 59.7 20.3 V G96 – Mt. Lemmon Survey MPS 862034
2016 12 06.24539 02 52 55.05 +13 58 59.8 20.8 V G96 – Mt. Lemmon Survey MPS 862034
2016 12 06.24967 02 52 54.91 +13 59 00.1 20.7 V G96 – Mt. Lemmon Survey MPS 862034
2016 12 06.25395 02 52 54.70 +13 58 59.6 21.1 V G96 – Mt. Lemmon Survey MPS 862034
2017 12 28.62983 12 27 31.204 +04 56 01.37 21.9 w F51 – Pan-STARRS 1, Haleakala MPS 881745
2017 12 28.63827 12 27 31.701 +04 55 59.59 21.7 w F51 – Pan-STARRS 1, Haleakala MPS 881745
2017 12 28.64675 12 27 32.207 +04 55 57.57 21.5 w F51 – Pan-STARRS 1, Haleakala MPS 881745
2017 12 28.65524 12 27 32.707 +04 55 55.64 21.6 w F51 – Pan-STARRS 1, Haleakala MPS 881745
2018 01 14.60694 12 41 59.969 +04 12 41.87 21.3 w F51 – Pan-STARRS 1, Haleakala MPS 881745
2018 01 14.60823 12 42 00.026 +04 12 41.96 21.3 w F51 – Pan-STARRS 1, Haleakala MPS 881745
2018 01 14.61868 12 42 00.424 +04 12 40.89 21.4 w F51 – Pan-STARRS 1, Haleakala MPS 881745
2018 01 14.63065 12 42 00.900 +04 12 40.09 21.3 w F51 – Pan-STARRS 1, Haleakala MPS 881745
2018 01 14.63195 12 42 00.937 +04 12 39.94 21.5 w F51 – Pan-STARRS 1, Haleakala MPS 881745
2018 01 14.64253 12 42 01.354 +04 12 39.26 21.3 w F51 – Pan-STARRS 1, Haleakala MPS 881745
2018 01 14.64384 12 42 01.419 +04 12 39.02 21.2 w F51 – Pan-STARRS 1, Haleakala MPS 881745
2018 02 12.51735 12 51 12.359 +04 42 26.46 20.9 w F51 – Pan-STARRS 1, Haleakala MPS 867665
2018 02 12.52986 12 51 12.265 +04 42 29.12 20.8 w F51 – Pan-STARRS 1, Haleakala MPS 867665
2018 02 23.37665 12 48 37.18 +05 26 02.7 20.7 G G96 – Mt. Lemmon Survey MPS 870138
2018 02 23.38180 12 48 37.07 +05 26 04.6 20.8 G G96 – Mt. Lemmon Survey MPS 870138
2018 02 23.38693 12 48 36.94 +05 26 06.0 20.4 G G96 – Mt. Lemmon Survey MPS 870138
2018 02 23.39206 12 48 36.77 +05 26 07.1 20.6 G G96 – Mt. Lemmon Survey MPS 870138
2018 03 10.44528 12 39 50.785 +06 43 44.17 20.3 w F51 – Pan-STARRS 1, Haleakala MPS 876071
2018 03 10.45597 12 39 50.286 +06 43 47.64 20.5 w F51 – Pan-STARRS 1, Haleakala MPS 876071
2018 03 10.46673 12 39 49.769 +06 43 51.03 20.2 w F51 – Pan-STARRS 1, Haleakala MPS 876071
2018 03 10.46996 12 39 49.622 +06 43 52.18 20.2 w F51 – Pan-STARRS 1, Haleakala MPS 876071
2018 03 10.48076 12 39 49.113 +06 43 55.65 20.2 w F51 – Pan-STARRS 1, Haleakala MPS 876071
2018 03 17.35456 12 34 16.41 +07 20 31.5 18.8 G 703 – Catalina Sky Survey MPS 878905
2018 03 17.36511 12 34 16.04 +07 20 34.4 18.8 G 703 – Catalina Sky Survey MPS 878905
2018 03 17.37039 12 34 15.74 +07 20 34.9 18.8 G 703 – Catalina Sky Survey MPS 878905
2018 03 17.43782 12 34 12.376 +07 20 59.16 20.1 w F51 – Pan-STARRS 1, Haleakala MPS 878905
2018 03 17.45182 12 34 11.627 +07 21 03.53 20.0 w F51 – Pan-STARRS 1, Haleakala MPS 878905
2018 03 17.46582 12 34 10.875 +07 21 07.93 20.0 w F51 – Pan-STARRS 1, Haleakala MPS 878905
2018 03 18.44800 12 33 19.97 +07 26 10.0 19.9 G G96 – Mt. Lemmon Survey MPS 878905
2018 03 18.45310 12 33 19.68 +07 26 11.7 19.8 G G96 – Mt. Lemmon Survey MPS 878905
2018 03 18.45820 12 33 19.41 +07 26 13.0 20.0 G G96 – Mt. Lemmon Survey MPS 878905
2018 03 18.46330 12 33 19.12 +07 26 14.6 20.1 G G96 – Mt. Lemmon Survey MPS 878905
2018 03 19.39762 12 32 30.764 +07 31 00.41 19.9 w F51 – Pan-STARRS 1, Haleakala MPS 878905
